Time,TemperatureF,DewpointF,PressureIn,WindDirection,WindDirectionDegrees,WindSpeedMPH,WindSpeedGustMPH,Humidity,HourlyPrecipIn,Conditions,Clouds,dailyrainin,SoftwareType,DateUTC
2014-09-02 00:13:00,82.0,78.0,29.94,South,178,1.0,5.0,87,0.00,,,0.03,,2014-09-02 05:13:00,
2014-09-02 00:22:00,82.0,78.0,29.94,South,178,0.0,5.0,87,0.00,,,0.03,,2014-09-02 05:22:00,
2014-09-02 01:22:00,81.0,76.0,29.94,South,178,0.0,1.0,86,0.00,,,0.03,,2014-09-02 06:22:00,
2014-09-02 02:11:00,81.0,76.0,29.94,South,178,0.0,0.0,86,0.00,,,0.03,,2014-09-02 07:11:00,
2014-09-02 02:52:00,79.0,75.0,29.94,South,178,0.0,0.0,87,0.00,,,0.03,,2014-09-02 07:52:00,
2014-09-02 03:12:00,79.0,75.0,29.94,South,178,0.0,0.0,87,0.00,,,0.03,,2014-09-02 08:12:00,
2014-09-02 04:12:00,79.0,74.0,29.95,South,178,0.0,0.0,86,0.01,,,0.03,,2014-09-02 09:12:00,
2014-09-02 04:22:00,79.0,74.0,29.95,South,178,0.0,0.0,85,0.01,,,0.03,,2014-09-02 09:22:00,
2014-09-02 04:54:00,80.0,74.0,29.94,South,178,0.0,0.0,83,0.00,,,0.03,,2014-09-02 09:54:00,
2014-09-02 05:13:00,80.0,75.0,29.94,South,178,0.0,0.0,84,0.00,,,0.03,,2014-09-02 10:13:00,
2014-09-02 05:24:00,79.0,74.0,29.94,South,178,0.0,0.0,85,0.00,,,0.03,,2014-09-02 10:24:00,
2014-09-02 05:53:00,79.0,74.0,29.95,South,178,0.0,0.0,84,0.00,,,0.03,,2014-09-02 10:53:00,
2014-09-02 06:23:00,79.0,73.0,29.96,South,178,0.0,0.0,83,0.00,,,0.03,,2014-09-02 11:23:00,
2014-09-02 06:52:00,79.0,73.0,29.96,South,178,0.0,0.0,83,0.00,,,0.03,,2014-09-02 11:52:00,
2014-09-02 07:22:00,79.0,73.0,29.97,South,178,0.0,0.0,83,0.00,,,0.03,,2014-09-02 12:22:00,
2014-09-02 07:43:00,79.0,73.0,29.97,South,178,0.0,0.0,81,0.00,,,0.03,,2014-09-02 12:43:00,
2014-09-02 07:52:00,80.0,73.0,29.97,South,178,0.0,3.0,80,0.00,,,0.03,,2014-09-02 12:52:00,
2014-09-02 09:12:00,85.0,81.0,29.98,SE,131,3.0,9.0,88,0.00,,,0.03,,2014-09-02 14:12:00,
2014-09-02 09:23:00,86.0,82.0,29.99,ESE,119,2.0,11.0,88,0.00,,,0.03,,2014-09-02 14:23:00,
2014-09-02 09:52:00,88.0,82.0,30.00,SE,126,6.0,10.0,83,0.00,,,0.03,,2014-09-02 14:52:00,
2014-09-02 10:12:00,89.0,84.0,30.00,SSE,149,3.0,11.0,84,0.00,,,0.03,,2014-09-02 15:12:00,
2014-09-02 10:22:00,88.0,83.0,30.01,South,176,4.0,10.0,84,0.00,,,0.03,,2014-09-02 15:22:00,
2014-09-02 10:43:00,89.0,81.0,30.00,SSW,199,5.0,9.0,78,0.00,,,0.03,,2014-09-02 15:43:00,
2014-09-02 11:13:00,91.0,83.0,30.00,SSE,163,2.0,9.0,77,0.00,,,0.03,,2014-09-02 16:13:00,
2014-09-02 11:24:00,91.0,81.0,30.01,South,171,5.0,12.0,73,0.00,,,0.03,,2014-09-02 16:24:00,
2014-09-02 12:23:00,92.0,81.0,30.01,South,180,7.0,12.0,71,0.00,,,0.03,,2014-09-02 17:23:00,
2014-09-02 13:13:00,91.0,79.0,30.01,South,182,6.0,11.0,68,0.00,,,0.03,,2014-09-02 18:13:00,
2014-09-02 13:53:00,92.0,80.0,29.98,South,174,4.0,10.0,69,0.00,,,0.03,,2014-09-02 18:53:00,
2014-09-02 14:22:00,92.0,81.0,29.98,South,179,3.0,9.0,70,0.00,,,0.03,,2014-09-02 19:22:00,
2014-09-02 14:42:00,92.0,82.0,29.97,SSE,153,0.0,10.0,72,0.00,,,0.03,,2014-09-02 19:42:00,